Time,TemperatureF,DewpointF,PressureIn,WindDirection,WindDirectionDegrees,WindSpeedMPH,WindSpeedGustMPH,Humidity,HourlyPrecipIn,Conditions,Clouds,dailyrainin,SoftwareType,DateUTC
2013-09-07 00:02:00,73.4,62.3,29.64,ESE,113,0.0,0.0,68,0.00,,,0.00,WUHU216HW,2013-09-07 07:02:00,
2013-09-07 00:07:00,73.4,62.3,29.65,ESE,113,0.0,0.0,68,0.00,,,0.00,WUHU216HW,2013-09-07 07:07:00,
2013-09-07 00:12:00,73.4,63.5,29.65,ESE,113,0.0,0.0,71,0.00,,,0.00,WUHU216HW,2013-09-07 07:12:00,
2013-09-07 00:17:00,73.3,63.4,29.65,NNE,23,0.7,1.1,71,0.11,,,0.11,WUHU216HW,2013-09-07 07:17:00,
2013-09-07 00:22:00,72.4,63.3,29.65,SE,135,1.8,1.8,73,0.22,,,0.22,WUHU216HW,2013-09-07 07:22:00,
2013-09-07 00:27:00,72.0,62.9,29.65,WNW,300,0.5,1.8,73,0.22,,,0.22,WUHU216HW,2013-09-07 07:27:00,
2013-09-07 00:32:00,71.5,62.7,29.65,NNE,23,0.4,1.8,74,0.22,,,0.22,WUHU216HW,2013-09-07 07:32:00,
2013-09-07 00:37:00,71.3,63.3,29.65,East,90,1.6,1.8,76,0.22,,,0.22,WUHU216HW,2013-09-07 07:37:00,
2013-09-07 00:42:00,71.8,62.7,29.65,North,0,0.4,2.7,73,0.22,,,0.22,WUHU216HW,2013-09-07 07:42:00,
2013-09-07 00:47:00,71.8,62.3,29.65,North,0,0.2,2.7,72,0.22,,,0.22,WUHU216HW,2013-09-07 07:47:00,
2013-09-07 00:52:00,71.6,62.6,29.65,North,0,0.2,0.4,73,0.22,,,0.22,WUHU216HW,2013-09-07 07:52:00,
2013-09-07 00:57:00,71.6,62.9,29.65,East,90,0.3,0.7,74,0.22,,,0.22,WUHU216HW,2013-09-07 07:57:00,
2013-09-07 01:02:00,71.6,63.3,29.66,East,90,0.0,0.7,75,0.22,,,0.22,WUHU216HW,2013-09-07 08:02:00,
2013-09-07 01:07:00,71.6,63.3,29.66,East,90,0.7,0.7,75,0.22,,,0.22,WUHU216HW,2013-09-07 08:07:00,
2013-09-07 01:12:00,71.6,63.6,29.65,East,90,0.0,0.7,76,0.22,,,0.22,WUHU216HW,2013-09-07 08:12:00,
2013-09-07 01:17:00,71.6,64.0,29.66,ENE,72,0.3,0.4,77,0.09,,,0.22,WUHU216HW,2013-09-07 08:17:00,
2013-09-07 01:22:00,71.1,64.6,29.66,North,0,0.9,1.1,80,0.00,,,0.22,WUHU216HW,2013-09-07 08:22:00,
2013-09-07 01:27:00,70.9,63.7,29.66,NNE,23,0.4,1.1,78,0.00,,,0.22,WUHU216HW,2013-09-07 08:27:00,
2013-09-07 01:32:00,70.9,64.1,29.67,NNE,30,0.5,0.9,79,0.00,,,0.22,WUHU216HW,2013-09-07 08:32:00,
2013-09-07 01:37:00,71.1,63.9,29.67,North,8,1.2,1.8,78,0.02,,,0.24,WUHU216HW,2013-09-07 08:37:00,
2013-09-07 01:42:00,70.9,64.1,29.68,North,9,1.8,2.5,79,0.02,,,0.24,WUHU216HW,2013-09-07 08:42:00,
2013-09-07 01:47:00,70.9,64.1,29.68,North,0,3.4,3.4,79,0.02,,,0.24,WUHU216HW,2013-09-07 08:47:00,
2013-09-07 01:52:00,70.9,64.1,29.68,North,0,4.0,4.0,79,0.02,,,0.24,WUHU216HW,2013-09-07 08:52:00,
2013-09-07 01:57:00,70.7,64.3,29.68,North,0,3.4,6.3,80,0.02,,,0.24,WUHU216HW,2013-09-07 08:57:00,
2013-09-07 02:02:00,70.6,63.7,29.67,North,11,3.3,6.3,79,0.02,,,0.24,WUHU216HW,2013-09-07 09:02:00,
2013-09-07 02:07:00,70.6,63.7,29.67,North,352,2.7,4.3,79,0.02,,,0.24,WUHU216HW,2013-09-07 09:07:00,
2013-09-07 02:12:00,70.2,63.4,29.67,North,349,2.5,3.8,79,0.02,,,0.24,WUHU216HW,2013-09-07 09:12:00,
2013-09-07 02:17:00,70.2,63.0,29.67,NNW,337,1.9,3.8,78,0.02,,,0.24,WUHU216HW,2013-09-07 09:17:00,
2013-09-07 02:22:00,70.0,62.8,29.68,ESE,113,1.6,3.8,78,0.02,,,0.24,WUHU216HW,2013-09-07 09:22:00,
2013-09-07 02:27:00,70.2,63.4,29.68,ENE,68,2.2,2.2,79,0.02,,,0.24,WUHU216HW,2013-09-07 09:27:00,
2013-09-07 02:32:00,70.2,63.0,29.67,NE,39,1.3,2.5,78,0.02,,,0.24,WUHU216HW,2013-09-07 09:32:00,
2013-09-07 02:37:00,70.2,62.6,29.66,ENE,68,0.7,2.5,77,0.00,,,0.24,WUHU216HW,2013-09-07 09:37:00,
2013-09-07 02:42:00,70.2,63.0,29.67,East,90,0.4,1.8,78,0.00,,,0.24,WUHU216HW,2013-09-07 09:42:00,
2013-09-07 02:47:00,70.2,62.6,29.67,ENE,75,0.7,2.0,77,0.00,,,0.24,WUHU216HW,2013-09-07 09:47:00,
2013-09-07 02:52:00,70.2,62.6,29.67,East,90,0.4,2.0,77,0.00,,,0.24,WUHU216HW,2013-09-07 09:52:00,
2013-09-07 02:57:00,70.2,63.0,29.67,ENE,77,0.4,2.0,78,0.00,,,0.24,WUHU216HW,2013-09-07 09:57:00,
2013-09-07 03:02:00,70.0,63.2,29.67,NE,45,0.7,1.8,79,0.00,,,0.24,WUHU216HW,2013-09-07 10:02:00,
2013-09-07 03:07:00,69.8,62.7,29.67,NNE,23,0.9,1.8,78,0.00,,,0.24,WUHU216HW,2013-09-07 10:07:00,
2013-09-07 03:12:00,69.7,62.8,29.66,North,355,1.1,1.8,79,0.00,,,0.24,WUHU216HW,2013-09-07 10:12:00,
2013-09-07 03:17:00,69.5,62.6,29.66,North,2,1.8,3.4,79,0.00,,,0.24,WUHU216HW,2013-09-07 10:17:00,
2013-09-07 03:22:00,69.5,62.6,29.65,North,4,1.2,3.4,79,0.00,,,0.24,WUHU216HW,2013-09-07 10:22:00,
2013-09-07 03:27:00,69.7,63.2,29.66,ENE,62,0.8,2.0,80,0.00,,,0.24,WUHU216HW,2013-09-07 10:27:00,
2013-09-07 03:32:00,69.7,63.2,29.66,NNE,23,0.4,1.3,80,0.00,,,0.24,WUHU216HW,2013-09-07 10:32:00,
2013-09-07 03:37:00,69.7,63.2,29.66,ENE,68,1.3,1.3,80,0.00,,,0.24,WUHU216HW,2013-09-07 10:37:00,
2013-09-07 03:42:00,69.7,63.2,29.65,North,353,1.8,2.2,80,0.00,,,0.24,WUHU216HW,2013-09-07 10:42:00,
2013-09-07 03:47:00,69.3,63.5,29.64,North,0,2.2,2.7,82,0.00,,,0.24,WUHU216HW,2013-09-07 10:47:00,
2013-09-07 03:52:00,68.9,62.9,29.65,NE,45,1.6,3.6,81,0.00,,,0.24,WUHU216HW,2013-09-07 10:52:00,
2013-09-07 03:57:00,69.1,63.4,29.64,North,0,1.3,3.6,82,0.00,,,0.24,WUHU216HW,2013-09-07 10:57:00,
2013-09-07 04:02:00,69.3,63.2,29.64,NE,45,0.6,2.0,81,0.00,,,0.24,WUHU216HW,2013-09-07 11:02:00,
2013-09-07 04:07:00,69.3,63.2,29.65,NNE,23,1.1,2.0,81,0.00,,,0.24,WUHU216HW,2013-09-07 11:07:00,
2013-09-07 04:12:00,69.3,63.2,29.64,North,10,1.1,1.8,81,0.00,,,0.24,WUHU216HW,2013-09-07 11:12:00,
2013-09-07 04:17:00,69.3,62.9,29.64,North,0,1.1,2.0,80,0.00,,,0.24,WUHU216HW,2013-09-07 11:17:00,
2013-09-07 04:22:00,69.5,63.0,29.64,NNW,345,1.5,3.6,80,0.00,,,0.24,WUHU216HW,2013-09-07 11:22:00,
2013-09-07 11:26:00,84.6,66.7,29.65,SSW,203,0.7,2.2,55,0.00,,,0.24,WUHU216HW,2013-09-07 18:26:00,
2013-09-07 11:31:00,85.1,67.1,29.65,SSE,158,1.8,2.9,55,0.00,,,0.24,WUHU216HW,2013-09-07 18:31:00,
2013-09-07 11:36:00,85.3,66.8,29.64,East,90,0.4,2.9,54,0.00,,,0.24,WUHU216HW,2013-09-07 18:36:00,
2013-09-07 11:41:00,85.3,66.8,29.64,North,355,0.8,1.8,54,0.00,,,0.24,WUHU216HW,2013-09-07 18:41:00,
2013-09-07 11:45:00,85.0,65.4,29.65,ESE,114,1.4,2.9,52,0.00,,,0.24,WUHU216HW,2013-09-07 18:45:00,
2013-09-07 11:50:00,85.0,65.4,29.64,North,6,0.9,2.9,52,0.00,,,0.24,WUHU216HW,2013-09-07 18:50:00,
2013-09-07 11:56:00,84.6,64.5,29.65,North,0,0.6,2.5,51,0.00,,,0.24,WUHU216HW,2013-09-07 18:56:00,
2013-09-07 12:00:00,84.1,65.1,29.64,NNE,31,0.5,1.8,53,0.00,,,0.24,WUHU216HW,2013-09-07 19:00:00,
2013-09-07 12:06:00,84.2,65.3,29.64,NNE,23,0.3,0.9,53,0.00,,,0.24,WUHU216HW,2013-09-07 19:06:00,
2013-09-07 12:11:00,84.1,65.1,29.64,NNW,338,1.0,1.6,53,0.00,,,0.24,WUHU216HW,2013-09-07 19:11:00,
2013-09-07 12:16:00,83.3,64.4,29.63,NNW,338,2.5,2.5,53,0.00,,,0.24,WUHU216HW,2013-09-07 19:16:00,
2013-09-07 12:21:00,82.8,63.4,29.64,North,5,1.2,2.5,52,0.00,,,0.24,WUHU216HW,2013-09-07 19:21:00,
2013-09-07 12:26:00,83.2,63.7,29.63,NNW,330,1.1,2.5,52,0.00,,,0.24,WUHU216HW,2013-09-07 19:26:00,
2013-09-07 12:31:00,83.3,63.4,29.63,NNE,12,1.1,3.1,51,0.00,,,0.24,WUHU216HW,2013-09-07 19:31:00,
2013-09-07 12:36:00,83.5,64.1,29.63,NE,46,0.7,3.1,52,0.00,,,0.24,WUHU216HW,2013-09-07 19:36:00,
2013-09-07 12:41:00,83.9,64.9,29.63,NNE,23,1.1,1.6,53,0.00,,,0.24,WUHU216HW,2013-09-07 19:41:00,
2013-09-07 12:46:00,84.4,63.9,29.63,North,2,1.0,1.6,50,0.00,,,0.24,WUHU216HW,2013-09-07 19:46:00,
2013-09-07 12:51:00,84.6,65.1,29.63,NE,53,1.0,1.6,52,0.00,,,0.24,WUHU216HW,2013-09-07 19:51:00,
2013-09-07 12:56:00,84.6,65.1,29.63,NE,54,1.1,1.8,52,0.00,,,0.24,WUHU216HW,2013-09-07 19:56:00,
2013-09-07 13:01:00,84.4,63.9,29.62,ESE,116,0.7,1.8,50,0.00,,,0.24,WUHU216HW,2013-09-07 20:01:00,
2013-09-07 13:06:00,84.2,64.3,29.63,NNW,345,0.6,1.3,51,0.00,,,0.24,WUHU216HW,2013-09-07 20:06:00,
2013-09-07 13:11:00,84.8,65.3,29.62,NNE,23,0.8,1.8,52,0.00,,,0.24,WUHU216HW,2013-09-07 20:11:00,
2013-09-07 13:16:00,85.3,65.3,29.62,NNE,23,1.8,1.8,51,0.00,,,0.24,WUHU216HW,2013-09-07 20:16:00,
2013-09-07 13:21:00,85.3,65.3,29.62,NE,45,1.4,2.0,51,0.00,,,0.24,WUHU216HW,2013-09-07 20:21:00,
2013-09-07 13:26:00,85.3,64.7,29.62,NE,45,0.9,2.0,50,0.00,,,0.24,WUHU216HW,2013-09-07 20:26:00,
2013-09-07 13:31:00,85.5,65.3,29.61,NE,45,1.3,1.3,51,0.00,,,0.24,WUHU216HW,2013-09-07 20:31:00,
2013-09-07 13:36:00,85.3,65.3,29.61,North,0,1.8,1.8,51,0.00,,,0.24,WUHU216HW,2013-09-07 20:36:00,
2013-09-07 13:41:00,85.3,64.7,29.61,NW,315,1.8,2.5,50,0.00,,,0.24,WUHU216HW,2013-09-07 20:41:00,
2013-09-07 13:46:00,85.0,64.4,29.61,North,0,1.1,2.9,50,0.00,,,0.24,WUHU216HW,2013-09-07 20:46:00,
2013-09-07 13:51:00,85.3,65.3,29.61,North,0,2.5,2.9,51,0.00,,,0.24,WUHU216HW,2013-09-07 20:51:00,
2013-09-07 13:56:00,85.0,64.4,29.61,North,359,1.1,2.5,50,0.00,,,0.24,WUHU216HW,2013-09-07 20:56:00,
2013-09-07 14:01:00,84.2,63.1,29.60,North,0,0.9,2.5,49,0.00,,,0.24,WUHU216HW,2013-09-07 21:01:00,
2013-09-07 14:06:00,84.2,63.7,29.61,NNW,338,0.9,1.8,50,0.00,,,0.24,WUHU216HW,2013-09-07 21:06:00,
2013-09-07 14:11:00,83.9,62.7,29.61,NE,45,1.8,2.5,49,0.00,,,0.24,WUHU216HW,2013-09-07 21:11:00,
2013-09-07 14:16:00,83.5,63.0,29.60,North,352,1.2,2.5,50,0.00,,,0.24,WUHU216HW,2013-09-07 21:16:00,
2013-09-07 14:21:00,83.7,63.2,29.59,WNW,293,0.2,2.0,50,0.00,,,0.24,WUHU216HW,2013-09-07 21:21:00,
2013-09-07 14:26:00,84.1,62.9,29.60,NE,45,1.1,1.8,49,0.00,,,0.24,WUHU216HW,2013-09-07 21:26:00,
2013-09-07 14:31:00,84.4,63.9,29.59,NNW,343,0.7,1.8,50,0.00,,,0.24,WUHU216HW,2013-09-07 21:31:00,
2013-09-07 14:36:00,84.6,64.1,29.59,NNW,327,1.0,2.0,50,0.00,,,0.24,WUHU216HW,2013-09-07 21:36:00,
2013-09-07 14:41:00,84.6,63.5,29.59,North,0,1.3,2.0,49,0.00,,,0.24,WUHU216HW,2013-09-07 21:41:00,
2013-09-07 14:46:00,85.0,64.4,29.59,NNE,18,0.5,1.8,50,0.00,,,0.24,WUHU216HW,2013-09-07 21:46:00,
2013-09-07 14:51:00,85.5,64.3,29.58,East,90,1.6,2.0,49,0.00,,,0.24,WUHU216HW,2013-09-07 21:51:00,
2013-09-07 14:56:00,85.5,64.3,29.58,North,4,1.4,2.2,49,0.00,,,0.24,WUHU216HW,2013-09-07 21:56:00,
2013-09-07 15:00:00,85.0,63.7,29.59,North,0,1.6,2.2,49,0.00,,,0.24,WUHU216HW,2013-09-07 22:00:00,
2013-09-07 15:06:00,85.3,64.1,29.58,NW,322,0.9,2.0,49,0.00,,,0.24,WUHU216HW,2013-09-07 22:06:00,
2013-09-07 15:10:00,85.7,64.4,29.57,NW,308,0.9,2.0,49,0.00,,,0.24,WUHU216HW,2013-09-07 22:10:00,
2013-09-07 15:16:00,86.6,63.3,29.58,NNW,346,2.0,3.6,46,0.00,,,0.24,WUHU216HW,2013-09-07 22:16:00,
2013-09-07 15:21:00,86.9,63.6,29.57,SSW,197,0.9,3.6,46,0.00,,,0.24,WUHU216HW,2013-09-07 22:21:00,
2013-09-07 15:26:00,86.9,63.6,29.56,SW,218,0.6,1.8,46,0.00,,,0.24,WUHU216HW,2013-09-07 22:26:00,
2013-09-07 15:31:00,87.5,64.1,29.57,South,172,1.5,2.5,46,0.00,,,0.24,WUHU216HW,2013-09-07 22:31:00,
2013-09-07 15:36:00,88.2,64.1,29.57,SW,217,1.2,2.5,45,0.00,,,0.24,WUHU216HW,2013-09-07 22:36:00,
2013-09-07 15:41:00,88.2,62.8,29.57,WSW,248,1.3,1.8,43,0.00,,,0.24,WUHU216HW,2013-09-07 22:41:00,
2013-09-07 15:46:00,87.8,61.9,29.56,NW,323,1.4,2.2,42,0.00,,,0.24,WUHU216HW,2013-09-07 22:46:00,
2013-09-07 15:51:00,87.7,61.7,29.57,NNE,33,0.8,2.5,42,0.00,,,0.24,WUHU216HW,2013-09-07 22:51:00,
2013-09-07 15:56:00,88.4,62.4,29.56,NE,45,0.4,2.5,42,0.00,,,0.24,WUHU216HW,2013-09-07 22:56:00,
2013-09-07 16:01:00,88.9,61.6,29.55,NE,50,0.7,1.6,40,0.00,,,0.24,WUHU216HW,2013-09-07 23:01:00,
2013-09-07 16:06:00,89.3,61.0,29.56,East,90,1.8,2.0,39,0.00,,,0.24,WUHU216HW,2013-09-07 23:06:00,
2013-09-07 16:11:00,88.6,60.4,29.55,ENE,68,0.9,2.0,39,0.00,,,0.24,WUHU216HW,2013-09-07 23:11:00,
2013-09-07 16:16:00,88.7,62.0,29.55,ENE,68,1.1,2.5,41,0.00,,,0.24,WUHU216HW,2013-09-07 23:16:00,
2013-09-07 16:21:00,88.9,60.8,29.55,East,90,1.1,2.5,39,0.00,,,0.24,WUHU216HW,2013-09-07 23:21:00,
2013-09-07 16:26:00,88.9,61.6,29.56,SSE,150,1.2,2.2,40,0.00,,,0.24,WUHU216HW,2013-09-07 23:26:00,
2013-09-07 16:30:00,89.1,61.7,29.54,North,0,0.7,2.2,40,0.00,,,0.24,WUHU216HW,2013-09-07 23:30:00,
2013-09-07 16:35:00,89.3,61.8,29.55,SSW,199,0.9,1.3,40,0.00,,,0.24,WUHU216HW,2013-09-07 23:35:00,
2013-09-07 16:40:00,89.5,61.9,29.55,South,180,1.3,2.2,40,0.00,,,0.24,WUHU216HW,2013-09-07 23:40:00,
2013-09-07 16:45:00,89.1,60.8,29.54,SW,225,2.0,2.5,39,0.00,,,0.24,WUHU216HW,2013-09-07 23:45:00,
2013-09-07 16:51:00,88.9,61.6,29.55,SSW,203,3.4,4.0,40,0.00,,,0.24,WUHU216HW,2013-09-07 23:51:00,
2013-09-07 16:56:00,89.1,60.8,29.54,WSW,248,1.3,4.0,39,0.00,,,0.24,WUHU216HW,2013-09-07 23:56:00,
2013-09-07 17:01:00,88.9,61.6,29.54,WSW,237,0.7,3.4,40,0.00,,,0.24,WUHU216HW,2013-09-08 00:01:00,
2013-09-07 17:06:00,88.9,60.8,29.54,NNW,338,1.8,2.5,39,0.00,,,0.24,WUHU216HW,2013-09-08 00:06:00,
2013-09-07 17:11:00,88.6,60.4,29.54,SSW,207,1.9,2.7,39,0.00,,,0.24,WUHU216HW,2013-09-08 00:11:00,
2013-09-07 17:16:00,88.2,60.9,29.54,West,263,1.7,2.7,40,0.00,,,0.24,WUHU216HW,2013-09-08 00:16:00,
2013-09-07 17:21:00,87.8,60.7,29.54,SW,225,2.0,3.4,40,0.00,,,0.24,WUHU216HW,2013-09-08 00:21:00,
2013-09-07 17:26:00,87.7,60.5,29.54,SSE,158,2.5,3.6,40,0.00,,,0.24,WUHU216HW,2013-09-08 00:26:00,
2013-09-07 17:31:00,87.3,60.9,29.54,SW,225,1.8,3.6,41,0.00,,,0.24,WUHU216HW,2013-09-08 00:31:00,
2013-09-07 17:36:00,87.1,60.7,29.54,SW,225,0.8,3.4,41,0.00,,,0.24,WUHU216HW,2013-09-08 00:36:00,
2013-09-07 17:41:00,87.1,60.7,29.54,SW,225,2.7,2.7,41,0.00,,,0.24,WUHU216HW,2013-09-08 00:41:00,
2013-09-07 17:46:00,86.9,61.1,29.54,SW,225,2.5,3.4,42,0.00,,,0.24,WUHU216HW,2013-09-08 00:46:00,
2013-09-07 17:51:00,87.1,61.3,29.54,SSW,203,2.6,3.4,42,0.00,,,0.24,WUHU216HW,2013-09-08 00:51:00,
2013-09-07 17:56:00,86.9,61.1,29.54,SW,223,1.5,3.4,42,0.00,,,0.24,WUHU216HW,2013-09-08 00:56:00,
2013-09-07 18:01:00,86.8,60.9,29.55,SW,215,1.1,3.4,42,0.00,,,0.24,WUHU216HW,2013-09-08 01:01:00,
2013-09-07 18:06:00,86.8,60.9,29.55,South,180,1.8,3.1,42,0.00,,,0.24,WUHU216HW,2013-09-08 01:06:00,
2013-09-07 18:11:00,86.8,60.9,29.55,SW,225,1.5,3.1,42,0.00,,,0.24,WUHU216HW,2013-09-08 01:11:00,
2013-09-07 18:16:00,86.6,60.8,29.56,SSW,210,0.9,2.7,42,0.00,,,0.24,WUHU216HW,2013-09-08 01:16:00,
2013-09-07 18:21:00,86.4,61.3,29.56,SSE,158,1.6,1.8,43,0.00,,,0.24,WUHU216HW,2013-09-08 01:21:00,
2013-09-07 18:26:00,85.9,60.1,29.56,West,270,1.8,2.0,42,0.00,,,0.24,WUHU216HW,2013-09-08 01:26:00,
2013-09-07 18:31:00,85.7,59.9,29.56,SW,225,1.1,2.0,42,0.00,,,0.24,WUHU216HW,2013-09-08 01:31:00,
2013-09-07 18:35:00,85.3,59.7,29.56,SW,225,0.4,1.8,42,0.00,,,0.24,WUHU216HW,2013-09-08 01:35:00,
2013-09-07 18:41:00,85.0,59.9,29.56,SSW,206,1.2,1.6,43,0.00,,,0.24,WUHU216HW,2013-09-08 01:41:00,
2013-09-07 18:46:00,84.6,59.7,29.57,SW,225,0.3,2.0,43,0.00,,,0.24,WUHU216HW,2013-09-08 01:46:00,
2013-09-07 18:51:00,84.4,60.1,29.56,SW,225,0.4,2.0,44,0.00,,,0.24,WUHU216HW,2013-09-08 01:51:00,
2013-09-07 18:56:00,84.1,59.8,29.57,WSW,248,0.4,1.1,44,0.00,,,0.24,WUHU216HW,2013-09-08 01:56:00,
2013-09-07 19:01:00,83.9,59.6,29.56,SSW,203,0.3,1.1,44,0.00,,,0.24,WUHU216HW,2013-09-08 02:01:00,
2013-09-07 19:06:00,83.7,60.0,29.56,WNW,294,0.2,1.1,45,0.00,,,0.24,WUHU216HW,2013-09-08 02:06:00,
2013-09-07 19:11:00,83.3,59.8,29.57,West,274,0.9,1.6,45,0.00,,,0.24,WUHU216HW,2013-09-08 02:11:00,
2013-09-07 19:16:00,83.2,59.6,29.56,WSW,240,0.3,1.6,45,0.00,,,0.24,WUHU216HW,2013-09-08 02:16:00,
2013-09-07 19:20:00,83.0,60.0,29.57,West,270,0.3,0.4,46,0.00,,,0.24,WUHU216HW,2013-09-08 02:20:00,
2013-09-07 19:25:00,82.8,59.9,29.57,West,270,0.0,0.4,46,0.00,,,0.24,WUHU216HW,2013-09-08 02:25:00,
2013-09-07 19:30:00,82.8,59.9,29.56,SW,225,0.2,0.4,46,0.00,,,0.24,WUHU216HW,2013-09-08 02:30:00,
2013-09-07 19:36:00,82.4,60.1,29.58,West,270,0.2,0.4,47,0.00,,,0.24,WUHU216HW,2013-09-08 02:36:00,
2013-09-07 19:40:00,82.4,60.1,29.57,West,270,0.0,0.2,47,0.00,,,0.24,WUHU216HW,2013-09-08 02:40:00,
2013-09-07 19:45:00,82.4,60.7,29.57,West,270,0.0,0.2,48,0.00,,,0.24,WUHU216HW,2013-09-08 02:45:00,
2013-09-07 19:50:00,82.4,60.7,29.58,West,270,0.0,0.2,48,0.00,,,0.24,WUHU216HW,2013-09-08 02:50:00,
2013-09-07 19:55:00,82.4,61.3,29.58,ENE,68,0.4,0.7,49,0.00,,,0.24,WUHU216HW,2013-09-08 02:55:00,
2013-09-07 20:00:00,82.3,61.1,29.58,East,90,0.2,0.7,49,0.00,,,0.24,WUHU216HW,2013-09-08 03:00:00,
2013-09-07 20:05:00,82.3,61.1,29.58,NE,45,0.4,0.9,49,0.00,,,0.24,WUHU216HW,2013-09-08 03:05:00,
2013-09-07 20:10:00,82.1,61.0,29.58,NE,45,0.3,0.9,49,0.00,,,0.24,WUHU216HW,2013-09-08 03:10:00,
2013-09-07 20:15:00,81.7,61.3,29.59,NNE,23,0.0,0.9,50,0.00,,,0.24,WUHU216HW,2013-09-08 03:15:00,
2013-09-07 20:20:00,81.5,61.7,29.58,North,0,0.2,0.4,51,0.00,,,0.24,WUHU216HW,2013-09-08 03:20:00,
2013-09-07 20:25:00,81.2,61.3,29.58,North,0,0.3,0.4,51,0.00,,,0.24,WUHU216HW,2013-09-08 03:25:00,
2013-09-07 20:30:00,81.0,61.1,29.59,North,0,0.4,0.4,51,0.00,,,0.24,WUHU216HW,2013-09-08 03:30:00,
2013-09-07 20:35:00,80.8,61.5,29.58,NNE,23,0.2,0.4,52,0.00,,,0.24,WUHU216HW,2013-09-08 03:35:00,
2013-09-07 20:40:00,80.5,61.8,29.58,NNW,346,0.5,1.1,53,0.00,,,0.24,WUHU216HW,2013-09-08 03:40:00,
2013-09-07 20:45:00,79.9,61.2,29.59,NNW,338,0.2,1.1,53,0.00,,,0.24,WUHU216HW,2013-09-08 03:45:00,
2013-09-07 20:50:00,79.6,61.4,29.58,NNW,338,0.0,0.4,54,0.00,,,0.24,WUHU216HW,2013-09-08 03:50:00,
2013-09-07 20:55:00,79.4,61.3,29.59,North,0,0.0,0.4,54,0.00,,,0.24,WUHU216HW,2013-09-08 03:55:00,
2013-09-07 21:00:00,79.6,61.4,29.60,ENE,68,0.4,0.7,54,0.00,,,0.24,WUHU216HW,2013-09-08 04:00:00,
2013-09-07 21:01:00,79.6,61.4,29.60,ENE,68,0.4,0.7,54,0.00,,,0.24,WUHU216HW,2013-09-08 04:01:00,
2013-09-07 21:02:00,79.6,61.4,29.59,NE,45,0.2,0.7,54,0.00,,,0.24,WUHU216HW,2013-09-08 04:02:00,
2013-09-07 21:07:00,79.4,61.3,29.59,North,6,0.2,0.7,54,0.00,,,0.24,WUHU216HW,2013-09-08 04:07:00,
2013-09-07 21:12:00,79.4,61.7,29.59,NE,53,0.4,1.1,55,0.00,,,0.24,WUHU216HW,2013-09-08 04:12:00,
2013-09-07 21:17:00,79.4,61.7,29.59,NE,45,0.4,1.1,55,0.00,,,0.24,WUHU216HW,2013-09-08 04:17:00,
2013-09-07 21:22:00,79.2,61.7,29.59,North,0,0.4,0.9,55,0.00,,,0.24,WUHU216HW,2013-09-08 04:22:00,
2013-09-07 21:27:00,79.2,61.7,29.59,North,0,0.4,0.9,55,0.00,,,0.24,WUHU216HW,2013-09-08 04:27:00,
2013-09-07 21:32:00,79.2,61.7,29.59,North,0,0.4,0.7,55,0.00,,,0.24,WUHU216HW,2013-09-08 04:32:00,
2013-09-07 21:37:00,79.2,61.7,29.59,North,0,0.0,1.1,55,0.00,,,0.24,WUHU216HW,2013-09-08 04:37:00,
2013-09-07 21:42:00,79.0,61.5,29.59,NNE,23,0.0,1.1,55,0.00,,,0.24,WUHU216HW,2013-09-08 04:42:00,
2013-09-07 21:47:00,78.8,61.8,29.59,NE,45,0.2,0.4,56,0.00,,,0.24,WUHU216HW,2013-09-08 04:47:00,
2013-09-07 21:52:00,78.5,61.5,29.59,NE,45,0.0,0.2,56,0.00,,,0.24,WUHU216HW,2013-09-08 04:52:00,
2013-09-07 21:57:00,78.5,62.0,29.59,NE,50,0.5,0.9,57,0.00,,,0.24,WUHU216HW,2013-09-08 04:57:00,
2013-09-07 22:03:00,78.5,62.5,29.58,ENE,68,0.4,0.9,58,0.00,,,0.24,WUHU216HW,2013-09-08 05:03:00,
2013-09-07 22:08:00,78.3,62.4,29.58,ENE,68,0.0,0.4,58,0.00,,,0.24,WUHU216HW,2013-09-08 05:08:00,
2013-09-07 22:13:00,78.1,62.2,29.58,ENE,68,0.0,0.0,58,0.00,,,0.24,WUHU216HW,2013-09-08 05:13:00,
2013-09-07 22:18:00,77.9,62.0,29.58,ENE,68,0.0,0.0,58,0.00,,,0.24,WUHU216HW,2013-09-08 05:18:00,
2013-09-07 22:23:00,77.8,61.8,29.58,ENE,68,0.0,0.0,58,0.00,,,0.24,WUHU216HW,2013-09-08 05:23:00,
2013-09-07 22:28:00,77.6,61.7,29.58,NE,45,0.0,0.4,58,0.00,,,0.24,WUHU216HW,2013-09-08 05:28:00,
2013-09-07 22:33:00,77.6,62.1,29.57,NE,45,0.0,0.4,59,0.00,,,0.24,WUHU216HW,2013-09-08 05:33:00,
2013-09-07 22:38:00,77.4,61.9,29.57,NE,45,0.0,0.0,59,0.00,,,0.24,WUHU216HW,2013-09-08 05:38:00,
2013-09-07 22:43:00,77.0,62.1,29.57,NE,45,0.2,0.2,60,0.00,,,0.24,WUHU216HW,2013-09-08 05:43:00,
2013-09-07 22:48:00,76.9,61.9,29.57,NE,45,0.0,0.2,60,0.00,,,0.24,WUHU216HW,2013-09-08 05:48:00,
2013-09-07 22:53:00,76.5,62.5,29.57,NE,45,0.0,0.2,62,0.00,,,0.24,WUHU216HW,2013-09-08 05:53:00,
2013-09-07 22:58:00,76.3,62.4,29.57,NNE,23,0.2,0.2,62,0.00,,,0.24,WUHU216HW,2013-09-08 05:58:00,
2013-09-07 23:03:00,76.0,63.4,29.57,NW,325,0.6,1.1,65,0.00,,,0.24,WUHU216HW,2013-09-08 06:03:00,
2013-09-07 23:08:00,75.8,63.2,29.57,NNW,329,0.8,1.8,65,0.00,,,0.24,WUHU216HW,2013-09-08 06:08:00,
2013-09-07 23:13:00,75.6,63.0,29.57,NNW,338,0.3,1.8,65,0.00,,,0.24,WUHU216HW,2013-09-08 06:13:00,
2013-09-07 23:18:00,75.8,63.2,29.57,NNW,338,0.0,0.4,65,0.00,,,0.24,WUHU216HW,2013-09-08 06:18:00,
2013-09-07 23:23:00,75.6,63.0,29.56,NW,315,0.3,0.7,65,0.00,,,0.24,WUHU216HW,2013-09-08 06:23:00,
2013-09-07 23:28:00,75.6,63.0,29.57,NNW,338,0.0,0.7,65,0.00,,,0.24,WUHU216HW,2013-09-08 06:28:00,
2013-09-07 23:33:00,75.6,63.5,29.58,NW,315,0.7,0.7,66,0.00,,,0.24,WUHU216HW,2013-09-08 06:33:00,
2013-09-07 23:38:00,75.2,63.1,29.57,NNW,338,1.1,1.3,66,0.00,,,0.24,WUHU216HW,2013-09-08 06:38:00,
2013-09-07 23:43:00,75.2,63.1,29.57,WNW,298,1.0,2.0,66,0.00,,,0.24,WUHU216HW,2013-09-08 06:43:00,
2013-09-07 23:48:00,75.2,63.1,29.58,NNW,332,0.7,2.0,66,0.00,,,0.24,WUHU216HW,2013-09-08 06:48:00,
2013-09-07 23:53:00,75.2,63.1,29.57,NNW,329,1.0,1.3,66,0.00,,,0.24,WUHU216HW,2013-09-08 06:53:00,
2013-09-07 23:58:00,75.1,62.9,29.57,NW,326,0.8,1.3,66,0.00,,,0.24,WUHU216HW,2013-09-08 06:58:00,